Hourly Data Report for April 15, 2018

MIRAMICHI RCS
NEW BRUNSWICK
Current Station Operator: ECCC - MSC

47°00'34.000" N
65°27'54.000" W
33.00 m
8100989
71744
ACQ

Download Data

Hourly Data (April 2018)
Hourly Data Report for April 15, 2018
TIME
LST
Temp Definition
°C
Dew Point Definition
°C
Rel Hum Definition
%
Precip. Amount Definition
mm

Wind Dir Definition
10's deg

Wind Spd Definition
km/h
Visibility Definition
km
Stn Press Definition
kPa
Hmdx Definition


Wind Chill Definition


Weather Definition


00:00 -6.9 -18.3 40 0.0 30 14   102.54   -13 LegendNANA
01:00 -7.2 -18.3 41 0.0 30 13   102.56   -13 LegendNANA
02:00 -7.7 -18.1 43 0.0 30 14   102.66   -14 LegendNANA
03:00 -8.1 -18.1 44 0.0 31 13   102.68   -14 LegendNANA
04:00 -8.5 -18.0 46 0.0 31 11   102.78   -14 LegendNANA
05:00 -8.9 -18.0 48 0.0 30 11   102.87   -14 LegendNANA
06:00 -9.1 -18.5 46 0.0 31 9   102.94   -14 LegendNANA
07:00 -8.7 -18.7 44 0.0 32 11   102.98   -14 LegendNANA
08:00 -7.8 -19.4 39 0.0 32 14   103.03   -14 LegendNANA
09:00 -6.7 -19.5 35 0.0 31 15   103.05   -13 LegendNANA
10:00 -5.3 -19.3 32 0.0 30 15   103.09   -11 LegendNANA
11:00 -3.6 -18.0 32 0.0 30 13   103.06   -8 LegendNANA
12:00 -1.9 -18.3 27 0.0 31 13   103.04   -6 LegendNANA
13:00 -0.7 -19.9 22 0.0 32 12   103.05   -5 LegendNANA
14:00 0.7 -18.9 21 0.0 33 9   103.01     LegendNANA
15:00 1.6 -18.8 20 0.0 34 8   103.01     LegendNANA
16:00 2.1 -17.9 21 0.0 36 10   103.04     LegendNANA
17:00 1.6 -17.1 24 0.0 3 10   103.08     LegendNANA
18:00 0.8 -12.5 36 0.0 6 9   103.13     LegendNANA
19:00 -0.4 -15.2 32 0.0 7 4   103.16   -2 LegendNANA
20:00 -3.7 -11.8 53 0.0 6 4   103.19   -5 LegendNANA
21:00 -3.0 -12.8 47 0.0 3 6   103.26   -5 LegendNANA
22:00 -5.2 -12.4 57 0.0 7 5   103.33   -7 LegendNANA
23:00 -6.4 -11.4 68 0.0 4 1   103.39   -7 LegendNANA

Notes on Data Quality.

Legend

  • E = Estimated
  • M = Missing
  • NA = Not Available*
  • [empty] = Indicates an unobserved value
Date modified: